Flag for Germany Weather past 2 weeks in Lörrach, Baden-Württemberg, Germany

Now
61 °F

Clear.


Feels Like: 61 °F
Forecast: 52 / 68 °F
Wind: 1 mph from North

Location: Bale-Mulhouse

Current Time: May 24, 2015 at 11:38:29 PM

Latest Report: May 24, 2015 at 11:00 PM


Visibility: 10 mi

Pressure: 30.04 "Hg

Humidity: 72%

Dew point: 52 °F

Location of LörrachLocation

Historic Weather in Lörrach — Graph

°F

Lörrach temperature yesterday

Maximum temperature yesterday: 68 °F (at 4:30 PM)
Minimum temperature yesterday: 43 °F (at 6:00 AM)
Average temperature yesterday: 57 °F

Past Weeks' High & Low Weather Summary

 TemperatureHumidityPressure
High88 °F (May 12, 4:00 PM)100% (May 10, 6:30 AM)30.36 "Hg (May 10, 6:30 AM)
Low39 °F (May 22, 5:00 AM)24% (May 12, 4:00 PM)29.77 "Hg (May 18, 6:30 PM)
Average59 °F69%30.10 "Hg
* Reported May 9 10:00 PM — May 24 10:00 PM, Lörrach, Weather by CustomWeather, © 2015

Note: Actual official high and low records may vary slightly from our data, if they occured in-between our weather recording intervals... More about our weather records

Advertising

Lörrach weather history for previous 24 hours

 ConditionsComfort  
Time TempWeatherWind HumidityBarometerVisibility
10:00 PM
Sun, May 24
61 °FSunny.1 mph72%30.04 "Hg10 mi
9:30 PM63 °FSunny.No wind68%30.04 "Hg10 mi
9:00 PM63 °FSunny.2 mph68%30.04 "Hg10 mi
8:30 PM64 °FPartly sunny.2 mph64%30.04 "HgN/A
8:00 PM66 °FPartly sunny.2 mph56%30.04 "HgN/A
7:30 PM66 °FPartly sunny.5 mph52%30.04 "HgN/A
7:00 PM66 °FPartly sunny.5 mph52%30.01 "HgN/A
6:30 PM66 °FPartly sunny.3 mph56%30.01 "HgN/A
6:00 PM66 °FPartly sunny.5 mph56%30.04 "HgN/A
5:30 PM66 °FPartly sunny.6 mph56%30.04 "HgN/A
5:00 PM68 °FPartly sunny.7 mph56%30.04 "HgN/A
4:30 PM66 °FPartly sunny.6 mph56%30.04 "HgN/A
4:00 PM66 °FPartly sunny.6 mph56%30.04 "HgN/A
3:30 PM68 °FPartly sunny.7 mph53%30.04 "HgN/A
3:00 PM66 °FPartly sunny.7 mph60%30.04 "HgN/A
2:30 PM68 °FPartly sunny.5 mph53%30.04 "HgN/A
2:00 PM66 °FPartly sunny.6 mph52%30.04 "HgN/A
1:30 PM66 °FPartly sunny.6 mph56%30.07 "HgN/A
1:00 PM66 °FPartly sunny.3 mph52%30.07 "HgN/A
12:30 PM66 °FPartly sunny.2 mph49%30.04 "HgN/A
12:00 PM66 °FScattered clouds.5 mph56%30.07 "HgN/A
11:30 AM66 °FPassing clouds.3 mph52%30.07 "HgN/A
11:00 AM64 °FPassing clouds.2 mph60%30.07 "HgN/A
10:30 AM63 °FPassing clouds.3 mph64%30.07 "HgN/A
10:00 AM61 °FScattered clouds.3 mph68%30.07 "HgN/A
9:30 AM59 °FPassing clouds.1 mph72%30.07 "HgN/A
9:00 AM57 °FPassing clouds.No wind72%30.07 "HgN/A
8:30 AM55 °FSunny.No wind77%30.07 "Hg10 mi
8:00 AM52 °FSunny.No wind88%30.07 "Hg10 mi
7:30 AM48 °FSunny.No wind94%30.07 "Hg10 mi
7:00 AM48 °FSunny.No wind94%30.07 "Hg10 mi
6:30 AM48 °FClear.No wind94%30.04 "Hg10 mi
6:00 AM46 °FClear.2 mph93%30.04 "Hg10 mi
5:30 AM45 °FClear.2 mph93%30.04 "Hg10 mi
5:00 AM45 °FClear.No wind93%30.04 "Hg10 mi
4:30 AM45 °FClear.1 mph93%30.04 "Hg10 mi
4:00 AM45 °FClear.No wind93%30.04 "Hg10 mi
3:30 AM46 °FClear.1 mph87%30.04 "Hg10 mi
3:00 AM46 °FClear.3 mph93%30.07 "Hg10 mi
2:30 AM46 °FClear.1 mph93%30.07 "Hg10 mi
2:00 AM46 °FClear.2 mph87%30.07 "Hg10 mi
1:30 AM50 °FClear.1 mph82%30.07 "Hg10 mi
1:00 AM50 °FClear.2 mph82%30.07 "Hg10 mi
12:30 AM54 °FClear.1 mph72%30.07 "Hg10 mi
12:00 AM55 °FClear.3 mph67%30.07 "Hg10 mi
11:30 PM
Sat, May 23
55 °FPassing clouds.3 mph72%30.07 "HgN/A
11:00 PM57 °FClear.2 mph63%30.07 "Hg10 mi
Weather by CustomWeather, © 2015

See weather overviewHow to use our weather pages